FW4191 Weather Reports


Display with metric or nautical units.
time (UTC)temp
F
wind
direction
speed
MPH
gust
MPH
rain 1hr
in
rain 24hr
in
rain mn
in
humidity
%
barometer
mb
20260508104816 40 225 0.0 0.0 0.00 0.02 0.00 94 1078.0
20260508103716 40 225 0.0 0.0 0.00 0.02 0.00 94 1078.1
20260508103617 40 225 0.0 0.0 0.00 0.02 0.00 94 1078.2
20260508102616 40 225 0.0 0.0 0.00 0.02 0.00 93 1078.0
20260508102516 40 225 0.0 0.0 0.00 0.02 0.00 93 1078.0
20260508101614 39 225 0.0 0.0 0.00 0.02 0.00 94 1078.2
20260508100632 39 225 0.0 0.0 0.00 0.02 0.00 93 1078.0
20260508095631 39 225 0.0 0.0 0.00 0.02 0.00 94 1078.0
20260508092615 39 225 0.0 0.0 0.00 0.02 0.00 94 1078.2
20260508091615 39 225 0.0 0.0 0.00 0.02 0.00 94 1078.1
20260508090616 39 225 0.0 0.0 0.00 0.02 0.00 93 1078.2
20260508085615 38 225 0.0 0.0 0.00 0.02 0.00 92 1078.0
20260508083714 37 225 0.0 0.0 0.00 0.02 0.00 92 1078.0
20260508082715 37 225 0.0 0.0 0.00 0.02 0.00 92 1077.9
20260508081717 37 225 0.0 0.0 0.00 0.02 0.00 93 1077.8
20260508080732 37 225 0.0 0.0 0.00 0.02 0.00 92 1077.8
20260508075831 37 225 0.0 0.0 0.00 0.02 0.00 93 1077.8
20260508074817 37 225 0.0 0.0 0.00 0.02 0.00 93 1077.8
20260508073816 37 225 0.0 0.0 0.00 0.02 0.00 93 1077.8
20260508072817 37 225 0.0 0.0 0.00 0.02 0.00 93 1077.8
20260508071914 37 225 0.0 0.0 0.00 0.02 0.00 92 1078.0
20260508070930 37 225 0.0 0.0 0.00 0.02 0.00 92 1078.0
20260508070014 37 225 0.0 0.0 0.00 0.02 0.00 91 1077.9
20260508065016 38 225 0.0 0.0 0.00 0.02 0.00 91 1078.0
20260508064017 38 225 0.0 0.0 0.00 0.02 0.00 92 1078.3
20260508063116 38 225 0.0 0.0 0.00 0.02 0.00 92 1078.5
20260508062113 39 225 0.0 0.0 0.00 0.02 0.00 91 1078.6
20260508062015 39 225 0.0 0.0 0.00 0.02 0.00 92 1078.7
20260508060931 38 225 0.0 0.0 0.00 0.02 0.00 91 1078.6
20260508054115 39 225 0.0 0.0 0.00 0.02 0.00 90 1078.6
20260508053117 39 225 0.0 0.0 0.00 0.02 0.00 91 1078.5
20260508052117 39 225 0.0 0.0 0.00 0.02 0.00 91 1078.4
20260508051116 39 225 0.0 0.0 0.00 0.02 0.00 91 1078.5
20260508051018 39 225 0.0 0.0 0.00 0.02 0.00 91 1078.4
20260508050016 39 225 0.0 0.0 0.00 0.02 0.00 91 1078.6
20260508044917 40 225 0.0 0.0 0.00 0.02 0.00 90 1078.6
20260508042915 40 225 0.0 0.0 0.00 0.02 0.00 89 1078.4
20260508035126 40 225 0.0 0.0 0.00 0.02 0.02 86 1078.3
20260508035042 40 225 0.0 0.0 0.00 0.02 0.02 86 1078.4
20260508034026 41 225 0.0 0.0 0.00 0.02 0.02 83 1078.4
20260508033026 41 225 0.0 0.0 0.00 0.02 0.02 84 1078.4
20260508032943 41 225 0.0 0.0 0.00 0.02 0.02 83 1078.4
20260508031028 42 225 0.0 0.0 0.00 0.02 0.02 81 1078.5
20260508030027 42 180 0.0 0.0 0.00 0.02 0.02 79 1078.0
20260508025926 42 180 0.0 1.0 0.00 0.02 0.02 80 1078.1
20260508024943 42 225 0.0 0.0 0.00 0.02 0.02 80 1078.5
20260508024826 42 225 0.0 0.0 0.00 0.02 0.02 79 1078.6
20260508024728 43 225 0.0 0.0 0.00 0.02 0.02 80 1078.5
20260508023627 43 225 0.0 1.0 0.00 0.02 0.02 79 1078.5
20260508022725 43 225 0.0 0.0 0.00 0.02 0.02 76 1078.5
20260508021726 43 225 0.0 0.0 0.00 0.02 0.02 74 1078.5
20260508020743 44 225 0.0 0.0 0.00 0.02 0.02 74 1078.5
20260508015826 44 225 0.0 0.0 0.00 0.02 0.02 72 1078.2
20260508014830 44 225 0.0 0.0 0.00 0.02 0.02 69 1078.5
20260508013828 45 225 0.0 0.0 0.00 0.02 0.02 67 1078.4
20260508013728 45 225 0.0 0.0 0.00 0.02 0.02 66 1078.4
20260508012743 46 202 0.0 0.0 0.00 0.02 0.02 63 1078.5
20260508011729 47 202 0.0 0.0 0.00 0.02 0.02 60 1078.5
20260508005727 50 202 0.0 0.0 0.00 0.02 0.02 55 1078.4
20260508005628 50 202 0.0 0.0 0.00 0.02 0.02 55 1078.5
20260508004627 51 202 0.0 1.0 0.00 0.02 0.02 53 1078.5
20260508002628 53 202 0.0 1.0 0.00 0.02 0.02 51 1078.4
20260508001644 53 202 0.0 0.0 0.00 0.02 0.02 50 1078.3
20260508001542 53 202 0.0 1.0 0.00 0.02 0.02 50 1078.4
20260507235627 55 223 1.0 3.0 0.00 0.02 0.02 48 1078.3
20260507233725 56 247 1.0 2.0 0.00 0.02 0.02 49 1078.3
20260507232729 57 225 0.0 0.0 0.00 0.02 0.02 46 1078.2
20260507231744 59 221 0.0 1.0 0.00 0.02 0.02 43 1078.0
20260507225725 64 67 0.0 0.0 0.00 0.02 0.02 38 1078.4
20260507222825 61 62 0.0 3.0 0.00 0.02 0.02 43 1078.2
20260507220827 61 157 0.0 0.0 0.00 0.02 0.02 45 1078.4
20260507214827 62 180 0.0 0.0 0.00 0.02 0.02 41 1078.6
20260507212828 64 60 0.0 1.0 0.00 0.02 0.02 37 1078.5
20260507212726 65 24 1.0 4.0 0.00 0.02 0.02 38 1078.5
20260507211742 63 45 0.0 2.0 0.00 0.02 0.02 41 1078.6
20260507210726 62 307 1.0 2.0 0.00 0.02 0.02 38 1078.5
20260507204824 65 300 1.0 1.0 0.00 0.02 0.02 39 1078.4
20260507202926 63 35 1.0 3.0 0.00 0.02 0.02 39 1078.4
20260507201927 63 310 1.0 4.0 0.00 0.02 0.02 39 1078.4
20260507201826 63 316 1.0 3.0 0.00 0.02 0.02 39 1078.3
20260507200925 63 339 2.0 3.0 0.00 0.02 0.02 40 1078.4
20260507195943 62 351 1.0 2.0 0.00 0.02 0.02 39 1078.5
20260507194027 63 315 1.0 2.0 0.00 0.02 0.02 40 1078.6
20260507193125 63 318 1.0 2.0 0.00 0.02 0.02 40 1078.7
20260507192144 63 35 1.0 2.0 0.00 0.02 0.02 41 1078.6
20260507191227 62 331 1.0 2.0 0.00 0.02 0.02 41 1078.9
20260507190226 62 325 1.0 2.0 0.00 0.02 0.02 42 1078.8
20260507190143 62 337 1.0 2.0 0.00 0.02 0.02 43 1078.8
20260507185127 61 2 0.0 2.0 0.02 0.02 0.02 43 1078.8
20260507184127 60 326 1.0 3.0 0.02 0.02 0.02 43 1078.9
20260507182142 61 54 2.0 4.0 0.02 0.03 0.02 42 1079.1
20260507180226 60 18 1.0 3.0 0.02 0.03 0.02 44 1079.3
20260507175227 60 337 1.0 2.0 0.00 0.01 0.00 44 1079.2
20260507174325 60 13 2.0 4.0 0.00 0.01 0.00 43 1079.5
20260507174228 60 337 1.0 2.0 0.00 0.01 0.00 42 1079.4
20260507173326 59 343 0.0 1.0 0.00 0.01 0.00 44 1079.5
20260507172343 60 289 1.0 3.0 0.00 0.01 0.00 45 1079.7
20260507165426 58 42 2.0 3.0 0.00 0.01 0.00 48 1079.9
20260507164524 57 321 2.0 4.0 0.00 0.01 0.00 46 1079.9
20260507164426 57 355 1.0 4.0 0.00 0.01 0.00 46 1080.0
20260507163525 58 256 2.0 5.0 0.00 0.02 0.00 44 1080.1
20260507161625 58 326 0.0 2.0 0.00 0.03 0.00 45 1080.2
20260507161525 57 315 0.0 1.0 0.00 0.03 0.00 45 1080.2
20260507160527 58 256 2.0 4.0 0.00 0.04 0.00 47 1080.2
20260507155525 57 298 1.0 3.0 0.00 0.05 0.00 44 1080.1
20260507154541 58 314 2.0 4.0 0.00 0.06 0.00 47 1080.3
20260507153526 58 279 0.0 2.0 0.00 0.07 0.00 47 1080.1
20260507153427 58 270 1.0 3.0 0.00 0.07 0.00 48 1080.1
20260507152524 57 337 1.0 2.0 0.00 0.08 0.00 47 1080.1
20260507152425 57 316 1.0 2.0 0.00 0.08 0.00 46 1080.0
20260507151342 57 318 0.0 2.0 0.00 0.09 0.00 49 1080.2
20260507145327 56 328 1.0 4.0 0.00 0.11 0.00 48 1080.0
20260507144327 55 331 2.0 3.0 0.00 0.11 0.00 48 1080.0
20260507143325 55 312 0.0 2.0 0.00 0.12 0.00 48 1080.0
20260507142424 56 337 1.0 3.0 0.00 0.12 0.00 52 1080.1
20260507142325 56 313 1.0 3.0 0.00 0.13 0.00 52 1080.2
20260507141327 56 337 0.0 1.0 0.00 0.13 0.00 57 1080.1
20260507141225 56 337 1.0 3.0 0.00 0.13 0.00 57 1080.1
20260507140227 55 2 0.0 1.0 0.00 0.14 0.00 60 1080.2
20260507140127 55 337 0.0 1.0 0.00 0.14 0.00 60 1080.2
20260507134325 54 298 0.0 1.0 0.00 0.15 0.00 71 1080.0
20260507132325 51 15 0.0 1.0 0.00 0.16 0.00 89 1080.2
20260507131325 50 360 0.0 1.0 0.00 0.16 0.00 92 1080.2
20260507130325 49 331 0.0 1.0 0.00 0.17 0.00 94 1080.2
20260507125325 47 157 0.0 0.0 0.00 0.17 0.00 93 1080.2
20260507125228 46 157 0.0 0.0 0.00 0.17 0.00 93 1080.1
20260507124225 46 223 0.0 2.0 0.00 0.18 0.00 94 1080.2
20260507124142 46 202 0.0 0.0 0.00 0.18 0.00 94 1080.1
20260507124025 46 202 0.0 0.0 0.00 0.18 0.00 94 1080.1
20260507123025 46 202 0.0 0.0 0.00 0.18 0.00 94 1080.1
20260507122927 46 202 0.0 0.0 0.00 0.19 0.00 94 1080.1
20260507121925 43 202 0.0 0.0 0.00 0.19 0.00 94 1080.1
20260507120926 40 202 0.0 0.0 0.00 0.19 0.00 95 1079.7
20260507120824 40 202 0.0 0.0 0.00 0.19 0.00 94 1079.7
20260507115827 37 202 0.0 0.0 0.00 0.20 0.00 94 1079.5
20260507114842 36 202 0.0 0.0 0.00 0.20 0.00 95 1079.3
20260507113925 36 202 0.0 0.0 0.00 0.21 0.00 94 1079.3
20260507113024 35 202 0.0 0.0 0.00 0.21 0.00 94 1079.3
20260507105126 34 202 0.0 0.0 0.00 0.23 0.00 95 1078.7